Location: Newark
(45.9456°N, 15.4064°E)
Time: 13:39:00
(UTC+00:00)

Vanguard 3 - Pass Details

Date: 01 February 2020
Orbit: 508 x 3263 km, 33.3° (Epoch: 24 February)

Event Time Altitude Azimuth Distance (km) Brightness Sun altitude
Rises 15:58:21 0° 250° (WSW) 6,516 15.0 -0.1°
Reaches altitude 10° 16:02:26 10° 246° (WSW) 5,749 13.8 -0.8°
Maximum altitude 16:20:31 55° 176° (S) 3,690 10.6 -3.7°
Drops below altitude 10° 16:38:01 10° 106° (ESE) 5,581 10.9 -6.5°
Sets 16:41:54 0° 102° (ESE) 6,324 11.1 -7.2°
